Flag for U.S.A. Weather past 2 weeks in Marengo, Indiana, U.S.A.

Now
70 °F

Sunny.


Feels Like: 77 °F
Forecast: 53 / 73 °F
Wind: 5 mph from East

Location: Bowling Green-Warren County Regional Airport

Current Time: Sep 17, 2014 at 8:00:07 PM

Latest Report: Sep 17, 2014 at 6:53 PM


Visibility: 10 mi

Pressure: 29.93 "Hg

Humidity: 55%

Dew point: 53 °F

Location of MarengoLocation

Historic Weather in Marengo — Graph

°F

Marengo temperature yesterday

Maximum temperature yesterday: 73 °F (at 5:53 PM)
Minimum temperature yesterday: 58 °F (at 11:53 PM)
Average temperature yesterday: 67 °F

Past Weeks' High & Low Weather Summary

 TemperatureHumidityPressure
High90 °F (Sep 5, 3:53 PM)97% (Sep 4, 5:00 AM)30.29 "Hg (Sep 4, 5:00 AM)
Low49 °F (Sep 14, 3:53 AM)41% (Sep 14, 6:53 PM)29.82 "Hg (Sep 10, 7:53 PM)
Average70 °F77%30.07 "Hg
* Reported Sep 2 6:53 PM — Sep 17 6:53 PM, Marengo, Weather by CustomWeather, © 2014

Note: Actual official high and low records may vary slightly from our data, if they occured in-between our weather recording intervals... More about our weather records

Advertising

Marengo weather history for previous 24 hours

 ConditionsComfort  
Time TempWeatherWind HumidityBarometerVisibility
6:53 PM
Sep 17
70 °FSunny.5 mph55%29.93 "Hg10 mi
5:53 PM71 °FScattered clouds.No wind51%29.97 "Hg10 mi
4:53 PM72 °FSunny.3 mph48%29.97 "Hg10 mi
3:53 PM71 °FSunny.5 mph53%30.00 "Hg10 mi
2:53 PM70 °FPassing clouds.5 mph55%30.02 "Hg10 mi
1:53 PM68 °FScattered clouds.3 mph61%30.03 "Hg10 mi
12:53 PM66 °FPassing clouds.No wind70%30.03 "Hg10 mi
11:53 AM61 °FPartly sunny.5 mph78%30.05 "Hg10 mi
10:53 AM58 °FFog.No wind87%30.05 "Hg6 mi
10:01 AM56 °FFog.5 mph93%30.05 "Hg2 mi
8:49 AM54 °FFog.5 mph97%30.04 "Hg1 mi
7:53 AM54 °FFog.3 mph97%30.05 "Hg2 mi
6:53 AM54 °FFog.6 mph93%30.05 "Hg5 mi
6:02 AM51 °FFog.3 mph92%30.05 "Hg4 mi
5:53 AM50 °FFog.No wind96%30.05 "Hg5 mi
4:53 AM53 °FFog.No wind89%30.05 "Hg5 mi
3:53 AM54 °FPassing clouds.No wind90%30.06 "Hg7 mi
2:53 AM55 °FClear.No wind90%30.07 "Hg8 mi
1:53 AM56 °FClear.3 mph90%30.07 "Hg10 mi
12:53 AM57 °FClear.3 mph87%30.08 "Hg10 mi
11:53 PM
Sep 16
58 °FClear.5 mph87%30.08 "Hg10 mi
10:53 PM60 °FClear.5 mph78%30.08 "Hg10 mi
9:53 PM62 °FPassing clouds.3 mph73%30.07 "Hg10 mi
8:53 PM65 °FOvercast.3 mph66%30.05 "Hg10 mi
Weather by CustomWeather, © 2014

See weather overviewHow to use our weather pages